STARLINK-32654, 62322

Orbit data source: Space-Track

STARLINK-32654, 62322 is a payload satellite owned by SpaceX/Seattle (US) in LEO that was launched on Fri, 13 Dec 2024 UTC via an FALCON 9 launch vehicle from the Air Force Western Test Range (AFWTR). Payload-class satellites include a variety of spacecraft equipped with specific instruments for various scientific and technological missions. These include communications satellites like Starlink; space stations such as the ISS; scientific satellites like the Hubble; Earth observation satellites from companies like Planet Labs, Umbra, and HawkEye 360; GPS; miniature CubeSats for education and research; and military/defense satellites.

Loading next visibility...
Identifier
62322, 2024-239X
Orbit
LEO
Country
Flag of USUS
Related business
Manufacturer
SpaceX/Seattle
Mission
Operational Commercial Communications
Bus & Motor
STARLINK V2M, Unknown motor
Mass
730 kg wet, ~700 kg dry
Launch date (UTC)
2024-12-13 (2 years ago)
Launch vehicle
FALCON 9
Launch site
Air Force Western Test Range (AFWTR)
Object type
Payload
Rocket body
Debris
Shape & HBR
Box + 2 Pan, 17.7 m
Radar Cross Section
33.884 m², Large (>1 m²)

Expand to show TLE details & history
Last TLE update: 21 hours ago

TLE from 21 hours ago
0 STARLINK-32654
1 62322U 24239X   26170.95312106  .00022341  00000-0  67012-3 0  9999
2 62322  53.1597  78.0166 0001229  80.9320 279.1822 15.34412894 85051
Epoch: 2026-06-19T22:52Z
TLE epoch observation values (Epoch: 2026-06-19T22:52:29.659Z)
Latitude
Longitude
-173.28168°
Altitude
463.432 km
Speed
7.636 km/s
True Right ascension
05h 12m 03s
True Declination
0° 00' 00"
Sunlit
Object was in daylight at epoch
Visualization orbit readout
Latitude
Unknown
Longitude
Unknown
Altitude
Unknown
Speed
Unknown
Apparent Right ascension
Unknown
Apparent Declination
Unknown
Sunlit
N/A
Visualization observer readout
Local Sidereal Time
07:17:07
Azimuth
Unknown
Elevation
Unknown
Doppler factor
Unknown
Orbital elements
Apogee altitude
463.763 km
Perigee altitude
462.081 km
Semi-major axis
6,841.059 km
Eccentricity
0.00012
Inclination
53.1597°
RAAN
78.0166°
Arg. of periapsis
80.932°
True anomaly
279.1683°
Mean anomaly
279.1822°
Eccentric anomaly
279.17525°
Mean motion
3.83582 °/min
Orbital period
93.85 mins
BSTAR
0.00067012
Loading maneuver chart data...
Computing Atmospheric mass density...
Loading historical data...
Loading historical data...
Loading historical data...
Loading historical data...
Loading historical data...
Loading historical data...
Loading historical data...

Documentation

Showing up to 5 results
|